Regional Weather Roundup
Issued by NWS Kansas City/Pleasant Hill, MO

Home | Current Version | Previous Version | Text Only | Print | Product List | Glossary Off
Versions: 1 2 3 4 5 6 7 8 9 10 11 12 13 14 15 16 17 18 19 20 21 22 23 24 25 26 27 28 29 30 31 32 33 34 35 36 37 38 39 40 41 42 43 44 45 46 47 48 49 50

000
ASUS43 KEAX 290711
RWREAX

WEATHER ROUNDUP FOR EASTERN KANSAS AND NORTHWEST MISSOURI
NATIONAL WEATHER SERVICE KANSAS CITY/PLEASANT HILL MO
200 AM CDT TUE JUL 29 2014

KSZ040-057-103>105-MOZ028-029-037-043-290800-
...KANSAS CITY METROPOLITAN AREA...

CITY           SKY/WX    TMP DP  RH WIND       PRES   REMARKS
K.C. INTL      CLEAR     63  58  83 NW3       30.18S
K.C. DOWNTOWN  CLEAR     68  61  78 CALM      30.17S
LEES SUMMIT    CLEAR     62  59  90 W3        30.18S
OLATHE - IXD   CLEAR     62  57  83 CALM      30.19S
OLATHE - OJC   CLEAR     66  59  78 CALM      30.17F
LAWRENCE       CLEAR     58  55  90 CALM      30.18S

$$

MOZ001>008-011>017-020>025-030>033-038>040-044>046-053-054-290800-
...NORTHERN AND CENTRAL MISSOURI...

CITY           SKY/WX    TMP DP  RH WIND       PRES   REMARKS
ST. JOSEPH     CLEAR     58  56  93 CALM      30.18S
MOSBY          SUNNY     61  59  94 CALM      30.17F
WARRENSBURG    CLEAR     61  59  94 CALM      30.17S
WHITEMAN AFB   CLEAR     60  51  70 CALM      30.16S
CLINTON        CLEAR     59  57  94 CALM      30.17S
SEDALIA        CLEAR     63  56  78 S5        30.18R
WARSAW         NOT AVBL
MARSHALL       CLOUDY    63  61  94 CALM      30.18R
CHILLICOTHE      N/A     63  59  87 CALM      30.17S
MOBERLY        CLEAR     59  54  82 CALM      30.17S
KIRKSVILLE     CLEAR     57  55  93 CALM      30.16S

$$

MOZ041-047>049-056>058-063>065-088>090-097-290800-
...EASTERN AND SOUTHERN MISSOURI...

CITY           SKY/WX    TMP DP  RH WIND       PRES   REMARKS
ST. LOUIS INTL CLEAR     63  54  72 CALM      30.13F
SPIRIT OF STL  CLEAR     56  53  90 W3        30.13S
COLUMBIA       CLEAR     61  55  81 CALM      30.15F
JEFFERSON CITY CLEAR     59  54  83 CALM      30.15S
MEXICO         PTCLDY   N/A N/A N/A CALM      30.15F
HANNIBAL       CLEAR     61  57  88 CALM      30.14F
ROLLA          CLEAR     57  51  80 CALM      30.15S
LEBANON        CLEAR     63  54  72 NE3       30.18S
OSAGE BEACH    CLEAR     57  52  82 CALM      30.16F
SPRINGFIELD    CLEAR     63  57  81 CALM      30.16S
BRANSON          N/A     64  57  77 CALM      30.17F
NEVADA         CLEAR     59  57  94 CALM      30.18S
JOPLIN         PTCLDY    63  59  87 CALM      30.17S
WEST PLAINS    CLEAR     62  55  77 N5        30.17R

$$

IAZ060-094-KSZ022-034>040-054-083-096-NEZ052-066-093-290800-
...KANSAS...SOUTHEAST NEBRASKA AND IOWA...

CITY           SKY/WX    TMP DP  RH WIND       PRES   REMARKS
TOPEKA         CLEAR     61  56  83 CALM      30.18F
MANHATTAN      PTCLDY    65  57  75 CALM      30.19F
EMPORIA        PTCLDY    64  58  80 CALM      30.18F
CHANUTE        PTCLDY    67  58  72 NE7       30.17F
WICHITA        MOCLDY    71  55  56 E6        30.18S
OMAHA          CLEAR     63  57  81 N5        30.20S
LINCOLN        CLEAR     64  54  69 NE6       30.19F
FALLS CITY     CLEAR     58  55  90 N5        30.18F
LAMONI         CLEAR     58  56  93 W3        30.18S
DES MOINES     CLEAR     62  58  86 NW3       30.16S

$$



USA.gov is the U.S. government's official web portal to all federal, state and local government web resources and services.